Home   Weather   Pukkisaari   Past weeks
Flag for Finland

Past Weather in Pukkisaari, Finland — Yesterday and Last 2 Weeks

Now
41 °F

Clear.


Feels Like: 39 °F
Forecast: 56 / 48 °F
Wind: 3 mph from North

Location: Helsinki-Vantaa

Current Time: Jun 2, 2020 at 2:52:49 am

Latest Report: Jun 2, 2020 at 2:20 am


Visibility: 10 mi

Pressure: 30.24 "Hg

Humidity: 93%

Dew Point: 39 °F

Location of PukkisaariLocation

Past Weather in Pukkisaari — Graph

°F

Pukkisaari Temperature Yesterday

Maximum temperature yesterday: 61 °F (at 10:20 am)
Minimum temperature yesterday: 41 °F (at 11:50 pm)
Average temperature yesterday: 54 °F

High & Low Weather Summary for the Past Weeks

 TemperatureHumidityPressure
High72 °F (May 26, 1:50 pm)100% (May 19, 5:20 am)30.42 "Hg (May 19, 5:20 am)
Low34 °F (May 18, 2:20 am)22% (May 22, 3:50 pm)29.56 "Hg (May 18, 1:20 am)
Average54 °F55%30.14 "Hg
* Reported May 18 1:20 am — Jun 2 1:50 am, Pukkisaari. Weather by CustomWeather, © 2020

Note: Actual official high and low records may vary slightly from our data, if they occured in-between our weather recording intervals... More about our weather records

Pukkisaari Weather History for the Previous 24 Hours

Scroll right to see more
 ConditionsComfort  
Time TempWeatherWind HumidityBarometerVisibility
1:50 am
Tue, Jun 2
41 °FClear.2 mph93%30.24 "Hg10 mi
1:20 am41 °FClear.3 mph87%30.24 "Hg10 mi
12:50 am41 °FClear.1 mph87%30.24 "Hg10 mi
12:20 am41 °FClear.1 mph93%30.24 "Hg10 mi
11:50 pm
Mon, Jun 1
41 °FClear.2 mph93%30.24 "Hg10 mi
11:20 pm43 °FClear.2 mph93%30.24 "Hg10 mi
10:50 pm45 °FClear.2 mph87%30.24 "Hg10 mi
10:20 pm48 °FSunny.2 mph76%30.24 "Hg10 mi
9:50 pm52 °FSunny.6 mph67%30.24 "Hg10 mi
9:20 pm52 °FPassing clouds.7 mph67%30.21 "HgN/A
8:50 pm54 °FSunny.9 mph63%30.21 "Hg10 mi
8:20 pm55 °FPassing clouds.8 mph59%30.21 "HgN/A
7:50 pm55 °FSunny.12 mph59%30.21 "Hg10 mi
7:20 pm55 °FPassing clouds.13 mph59%30.21 "HgN/A
6:50 pm57 °FSunny.15 mph55%30.21 "Hg10 mi
6:20 pm59 °FPassing clouds.8 mph59%30.21 "HgN/A
5:50 pm61 °FPassing clouds.7 mph55%30.21 "HgN/A
5:20 pm61 °FPassing clouds.10 mph55%30.21 "HgN/A
4:50 pm57 °FPassing clouds.7 mph63%30.21 "HgN/A
4:20 pm57 °FPassing clouds.8 mph63%30.24 "HgN/A
3:50 pm57 °FSunny.9 mph63%30.24 "Hg10 mi
3:20 pm57 °FSunny.9 mph59%30.24 "Hg10 mi
2:50 pm57 °FSunny.9 mph59%30.24 "Hg10 mi
2:20 pm57 °FSunny.10 mph63%30.24 "Hg10 mi
1:50 pm57 °FSunny.12 mph63%30.24 "Hg10 mi
1:20 pm57 °FSunny.10 mph63%30.24 "Hg10 mi
12:50 pm61 °FSunny.8 mph48%30.24 "Hg10 mi
12:20 pm61 °FScattered clouds.7 mph48%30.27 "HgN/A
11:50 am61 °FScattered clouds.5 mph45%30.27 "HgN/A
11:20 am61 °FScattered clouds.7 mph45%30.27 "HgN/A
10:50 am61 °FScattered clouds.6 mph45%30.27 "HgN/A
10:20 am61 °FPassing clouds.7 mph48%30.27 "HgN/A
9:50 am59 °FPassing clouds.7 mph55%30.27 "HgN/A
9:20 am57 °FPassing clouds.6 mph59%30.27 "HgN/A
8:50 am57 °FPassing clouds.7 mph59%30.27 "HgN/A
8:20 am57 °FPassing clouds.6 mph59%30.27 "HgN/A
7:50 am57 °FPassing clouds.8 mph59%30.27 "HgN/A
7:20 am55 °FSunny.8 mph63%30.27 "Hg10 mi
6:50 am54 °FSunny.8 mph67%30.27 "Hg10 mi
6:20 am54 °FSunny.7 mph67%30.27 "Hg10 mi
5:50 am52 °FSunny.6 mph72%30.27 "Hg10 mi
5:20 am52 °FSunny.6 mph72%30.27 "Hg10 mi
4:50 am50 °FSunny.7 mph76%30.27 "Hg10 mi
4:20 am46 °FSunny.6 mph82%30.27 "Hg10 mi
3:50 am46 °FClear.7 mph82%30.27 "Hg10 mi
3:20 am46 °FClear.3 mph82%30.27 "Hg10 mi
2:50 am52 °FClear.5 mph67%30.27 "Hg10 mi
2:20 am52 °FClear.6 mph72%30.27 "Hg10 mi
Weather by CustomWeather, © 2020

See weather overview

Advertising